Terminal Aerodrome Forecast
Issued by NWS

Home | Current Version | Previous Version | Text Only | Print | Product List | Glossary On
Versions: 1 2 3 4 5 6 7 8 9 10 11 12 13 14 15 16 17 18 19 20 21 22 23 24 25 26 27 28 29 30 31
000
FTUS41 KCTP 231200 RRA
TAFUNV
TAF
KUNV 231200Z 2312/2412 00000KT 5SM RA SCT028 OVC050 WS020/21045KT
     FM231300 23010KT 5SM -SHRA BR OVC015
     FM231400 25015G25KT P6SM VCSH OVC050
     FM240300 27015KT P6SM BKN050=

USA.gov is the U.S. government's official web portal to all federal, state and local government web resources and services.